DELTA 1 DEB

Satellite information

Favourite Embed

Satellite Type and Status

DEBRISIN ORBIT

Key statistics

Satellite DELTA 1 DEB at a glance.

Uptime

22079

Days in orbit

Revolutions

≈ 14.2

Per day

Orbit

SSO

Sun Synchronous Orbit

Inclination

99.0

Latest

Satellite identification and parameters

Extended collection of information and parameters for DELTA 1 DEB.

Object identification

Identified? True

Debris? True

Object name: DELTA 1 DEB

International designator: 1965-051D

Object number (NORAD): 1529

Object ID (CCSDS): 1529

Country: UNITED STATES OF AMERICA (US)

Current information (Y/N): Y

RCS size: SMALL

Orbital parameters

Period: 101.111 minutes

Inclination: 99.008 deg

SMA: 7189.42 km

Apoapsis: 837.775 km

Periapsis: 784.794 km

RAAN: 216.3033 deg

Eccentricy: 0.00368466

Argument of periapsis: 43.5668 deg

Mean anomaly: 316.841 deg

Mean motion: 14.24170561 rev/day

Mean motion (dot): 0.00000331 rev/day2

B* drag term: 0.00016297168 1/REarth

Two-line elements (TLE)

Creation date: Dec. 12, 2025, 10:14 a.m.

Reference frame: TEME

Reference center: EARTH

Epoch: Dec. 12, 2025, 2:29 a.m. UTC

TLE line 0: 0 DELTA 1 DEB

TLE line 1: 1 01529U 65051D 25346.10347799 .00000331 00000-0 16297-3 0 9999

TLE line 2: 2 01529 99.0080 216.3033 0036847 43.5668 316.8410 14.24170561128817

Live tracking on map

Real-time ground track for satellite DELTA 1 DEB.

In-orbit conjunctions

A list of the most updated potential collisions computed for object DELTA 1 DEB.

Target Orbit TCA Probability of collision Miss distance Type
CZ-6A DEB LEO 2025-11-26 05:50:05 0.0001237652 372.0 (m) DEBRIS
CZ-6A DEB LEO 2024-12-06 04:05:55 0.0002783736 210.0 (m) DEBRIS
COSMOS 2082 LEO 2024-10-31 20:09:54 0.0001202493 82.0 (m) PAYLOAD
FENGYUN 1C DEB SSO 2024-07-12 15:36:21 0.0001314198 248.0 (m) DEBRIS

Associated space launch

NASA's TIROS (Television & Infra-Red Observation Satellite) program was the first experimental weathersatellite program.

DELTA 1 DEB was lifted into orbit during the mission ‘Thor Delta C | Tiros 10’, on board a Thor Delta C space rocket.

The launch took place on July 2, 1965, 4:07 a.m. from Space Launch Complex 17B.

For more information about the launch, click the button.

Launch to space Thor Delta C | Tiros 10
Thor Delta C | Tiros 10

Agency: N/A

Status: Launch Successful

Launch date: July 2, 1965, 4:07 a.m. UTC

Rocket: Thor Delta C

Launch pad: Space Launch Complex 17B

Location: Cape Canaveral SFS, FL, USA

...

Latest news about this satellite

There are no fresh news available about this satellite. Check back as we update our databases every day.


Newsletter sign-up

Weekly statistics, charts and insights to help you stay on top of the space industry.